Year,Month,Day,Hour,Minute,Value (Times are PST for temperature in C)
2008,10,02,00,00,11.80
2008,10,02,00,01,11.80
2008,10,02,00,02,11.80
2008,10,02,00,03,11.80
2008,10,02,00,04,11.90
2008,10,02,00,05,11.90
2008,10,02,00,06,11.90
2008,10,02,00,07,11.90
2008,10,02,00,08,11.90
2008,10,02,00,09,11.90
2008,10,02,00,10,11.90
2008,10,02,00,11,11.90
2008,10,02,00,12,11.90
2008,10,02,00,13,11.90
2008,10,02,00,14,12.00
2008,10,02,00,15,12.00
2008,10,02,00,16,12.00
2008,10,02,00,17,12.00
2008,10,02,00,18,12.10
2008,10,02,00,19,12.10
2008,10,02,00,20,12.00
2008,10,02,00,21,12.00
2008,10,02,00,22,12.00
2008,10,02,00,23,12.00
2008,10,02,00,24,12.00
2008,10,02,00,25,12.00
2008,10,02,00,26,12.10
2008,10,02,00,27,12.10
2008,10,02,00,28,12.10
2008,10,02,00,29,12.10
2008,10,02,00,30,12.10
2008,10,02,00,31,12.10
2008,10,02,00,32,12.10
2008,10,02,00,33,12.10
2008,10,02,00,34,12.20
2008,10,02,00,35,12.20
2008,10,02,00,36,12.20
2008,10,02,00,37,12.20
2008,10,02,00,38,12.20
2008,10,02,00,39,12.20
2008,10,02,00,40,12.20
2008,10,02,00,41,12.20
2008,10,02,00,42,12.20
2008,10,02,00,43,12.20
2008,10,02,00,44,12.20
2008,10,02,00,45,12.20
2008,10,02,00,46,12.20
2008,10,02,00,47,12.20
2008,10,02,00,48,12.20
2008,10,02,00,49,12.10
2008,10,02,00,50,12.10
2008,10,02,00,51,12.00
2008,10,02,00,52,12.00
2008,10,02,00,53,12.00
2008,10,02,00,54,12.00
2008,10,02,00,55,12.00
2008,10,02,00,56,11.90
2008,10,02,00,57,11.90
2008,10,02,00,58,11.90
2008,10,02,00,59,11.90
2008,10,02,01,00,11.90
2008,10,02,01,01,11.90
2008,10,02,01,02,11.90
2008,10,02,01,03,11.90
2008,10,02,01,04,11.90
2008,10,02,01,05,11.90
2008,10,02,01,06,11.90
2008,10,02,01,07,11.90
2008,10,02,01,08,11.90
2008,10,02,01,09,11.90
2008,10,02,01,10,11.90
2008,10,02,01,11,11.90
2008,10,02,01,12,11.90
2008,10,02,01,13,11.90
2008,10,02,01,14,11.90
2008,10,02,01,15,12.00
2008,10,02,01,16,12.00
2008,10,02,01,17,12.00
2008,10,02,01,18,12.00
2008,10,02,01,19,12.00
2008,10,02,01,20,12.10
2008,10,02,01,21,12.10
2008,10,02,01,22,12.10
2008,10,02,01,23,12.10
2008,10,02,01,24,12.10
2008,10,02,01,25,12.10
2008,10,02,01,26,12.10
2008,10,02,01,27,12.20
2008,10,02,01,28,12.20
2008,10,02,01,29,12.20
2008,10,02,01,30,12.20
2008,10,02,01,31,12.20
2008,10,02,01,32,12.20
2008,10,02,01,33,12.20
2008,10,02,01,34,12.20
2008,10,02,01,35,12.20
2008,10,02,01,36,12.20
2008,10,02,01,37,12.30
2008,10,02,01,38,12.30
2008,10,02,01,39,12.30
2008,10,02,01,40,12.30
2008,10,02,01,41,12.30
2008,10,02,01,42,12.30
2008,10,02,01,43,12.30
2008,10,02,01,44,12.30
2008,10,02,01,45,12.30
2008,10,02,01,46,12.30
2008,10,02,01,47,12.40
2008,10,02,01,48,12.50
2008,10,02,01,49,12.60
2008,10,02,01,50,12.70
2008,10,02,01,51,12.70
2008,10,02,01,52,12.80
2008,10,02,01,53,12.90
2008,10,02,01,54,13.00
2008,10,02,01,55,13.00
2008,10,02,01,56,13.10
2008,10,02,01,57,13.10
2008,10,02,01,58,13.10
2008,10,02,01,59,13.20
2008,10,02,02,00,13.30
2008,10,02,02,01,13.30
2008,10,02,02,02,13.30
2008,10,02,02,03,13.30
2008,10,02,02,04,13.30
2008,10,02,02,05,13.30
2008,10,02,02,06,13.30
2008,10,02,02,07,13.30
2008,10,02,02,08,13.20
2008,10,02,02,09,13.20
2008,10,02,02,10,13.20
2008,10,02,02,11,13.20
2008,10,02,02,12,13.20
2008,10,02,02,13,13.10
2008,10,02,02,14,13.10
2008,10,02,02,15,13.10
2008,10,02,02,16,13.10
2008,10,02,02,17,13.00
2008,10,02,02,18,13.00
2008,10,02,02,19,12.90
2008,10,02,02,20,12.90
2008,10,02,02,21,12.90
2008,10,02,02,22,12.90
2008,10,02,02,23,12.80
2008,10,02,02,24,12.80
2008,10,02,02,25,12.80
2008,10,02,02,26,12.70
2008,10,02,02,27,12.70
2008,10,02,02,28,12.70
2008,10,02,02,29,12.70
2008,10,02,02,30,12.60
2008,10,02,02,31,12.60
2008,10,02,02,32,12.60
2008,10,02,02,33,12.60
2008,10,02,02,34,12.60
2008,10,02,02,35,12.60
2008,10,02,02,36,12.70
2008,10,02,02,37,12.70
2008,10,02,02,38,12.70
2008,10,02,02,39,12.70
2008,10,02,02,40,12.70
2008,10,02,02,41,12.70
2008,10,02,02,42,12.70
2008,10,02,02,43,12.60
2008,10,02,02,44,12.70
2008,10,02,02,45,12.70
2008,10,02,02,46,12.70
2008,10,02,02,47,12.70
2008,10,02,02,48,12.70
2008,10,02,02,49,12.70
2008,10,02,02,50,12.60
2008,10,02,02,51,12.60
2008,10,02,02,52,12.60
2008,10,02,02,53,12.60
2008,10,02,02,54,12.60
2008,10,02,02,55,12.60
2008,10,02,02,56,12.60
2008,10,02,02,57,12.60
2008,10,02,02,58,12.70
2008,10,02,02,59,12.70
2008,10,02,03,00,12.70
2008,10,02,03,01,12.70
2008,10,02,03,02,12.70
2008,10,02,03,03,12.70
2008,10,02,03,04,12.70
2008,10,02,03,05,12.70
2008,10,02,03,06,12.70
2008,10,02,03,07,12.70
2008,10,02,03,08,12.70
2008,10,02,03,09,12.70
2008,10,02,03,10,12.70
2008,10,02,03,11,12.70
2008,10,02,03,12,12.60
2008,10,02,03,13,12.60
2008,10,02,03,14,12.60
2008,10,02,03,15,12.60
2008,10,02,03,16,12.60
2008,10,02,03,17,12.60
2008,10,02,03,18,12.60
2008,10,02,03,19,12.60
2008,10,02,03,20,12.60
2008,10,02,03,21,12.60
2008,10,02,03,22,12.60
2008,10,02,03,23,12.60
2008,10,02,03,24,12.60
2008,10,02,03,25,12.60
2008,10,02,03,26,12.60
2008,10,02,03,27,12.60
2008,10,02,03,28,12.60
2008,10,02,03,29,12.60
2008,10,02,03,30,12.60
2008,10,02,03,31,12.60
2008,10,02,03,32,12.60
2008,10,02,03,33,12.50
2008,10,02,03,34,12.50
2008,10,02,03,35,12.50
2008,10,02,03,36,12.50
2008,10,02,03,37,12.40
2008,10,02,03,38,12.40
2008,10,02,03,39,12.40
2008,10,02,03,40,12.40
2008,10,02,03,41,12.30
2008,10,02,03,42,12.30
2008,10,02,03,43,12.30
2008,10,02,03,44,12.30
2008,10,02,03,45,12.20
2008,10,02,03,46,12.20
2008,10,02,03,47,12.20
2008,10,02,03,48,12.20
2008,10,02,03,49,12.20
2008,10,02,03,50,12.20
2008,10,02,03,51,12.20
2008,10,02,03,52,12.20
2008,10,02,03,53,12.20
2008,10,02,03,54,12.10
2008,10,02,03,55,12.10
2008,10,02,03,56,12.10
2008,10,02,03,57,12.00
2008,10,02,03,58,12.00
2008,10,02,03,59,11.90
2008,10,02,04,00,11.90
2008,10,02,04,01,11.80
2008,10,02,04,02,11.80
2008,10,02,04,03,11.80
2008,10,02,04,05,11.70
2008,10,02,04,06,11.70
2008,10,02,04,07,11.70
2008,10,02,04,08,11.70
2008,10,02,04,09,11.70
2008,10,02,04,10,11.70
2008,10,02,04,11,11.70
2008,10,02,04,12,11.70
2008,10,02,04,13,11.70
2008,10,02,04,14,11.70
2008,10,02,04,15,11.70
2008,10,02,04,16,11.70
2008,10,02,04,17,11.70
2008,10,02,04,18,11.70
2008,10,02,04,19,11.70
2008,10,02,04,20,11.70
2008,10,02,04,21,11.70
2008,10,02,04,22,11.70
2008,10,02,04,23,11.70
2008,10,02,04,24,11.70
2008,10,02,04,25,11.70
2008,10,02,04,26,11.60
2008,10,02,04,27,11.60
2008,10,02,04,28,11.60
2008,10,02,04,29,11.60
2008,10,02,04,30,11.60
2008,10,02,04,31,11.60
2008,10,02,04,32,11.60
2008,10,02,04,33,11.60
2008,10,02,04,34,11.60
2008,10,02,04,35,11.60
2008,10,02,04,36,11.60
2008,10,02,04,37,11.60
2008,10,02,04,38,11.60
2008,10,02,04,39,11.60
2008,10,02,04,40,11.60
2008,10,02,04,41,11.60
2008,10,02,04,42,11.60
2008,10,02,04,43,11.60
2008,10,02,04,44,11.60
2008,10,02,04,45,11.60
2008,10,02,04,46,11.60
2008,10,02,04,47,11.60
2008,10,02,04,48,11.60
2008,10,02,04,49,11.50
2008,10,02,04,50,11.50
2008,10,02,04,51,11.50
2008,10,02,04,52,11.50
2008,10,02,04,53,11.50
2008,10,02,04,54,11.50
2008,10,02,04,55,11.40
2008,10,02,04,56,11.40
2008,10,02,04,57,11.40
2008,10,02,04,58,11.40
2008,10,02,04,59,11.40
2008,10,02,05,00,11.40
2008,10,02,05,01,11.40
2008,10,02,05,02,11.40
2008,10,02,05,03,11.40
2008,10,02,05,04,11.40
2008,10,02,05,05,11.40
2008,10,02,05,06,11.40
2008,10,02,05,07,11.40
2008,10,02,05,08,11.40
2008,10,02,05,09,11.40
2008,10,02,05,10,11.40
2008,10,02,05,11,11.40
2008,10,02,05,12,11.40
2008,10,02,05,13,11.40
2008,10,02,05,14,11.40
2008,10,02,05,15,11.40
2008,10,02,05,16,11.40
2008,10,02,05,17,11.40
2008,10,02,05,18,11.40
2008,10,02,05,19,11.40
2008,10,02,05,20,11.40
2008,10,02,05,21,11.40
2008,10,02,05,22,11.40
2008,10,02,05,23,11.40
2008,10,02,05,24,11.40
2008,10,02,05,25,11.40
2008,10,02,05,26,11.40
2008,10,02,05,27,11.40
2008,10,02,05,28,11.40
2008,10,02,05,29,11.30
2008,10,02,05,30,11.30
2008,10,02,05,31,11.30
2008,10,02,05,32,11.30
2008,10,02,05,33,11.30
2008,10,02,05,34,11.30
2008,10,02,05,35,11.30
2008,10,02,05,36,11.30
2008,10,02,05,37,11.30
2008,10,02,05,38,11.30
2008,10,02,05,39,11.30
2008,10,02,05,40,11.30
2008,10,02,05,41,11.30
2008,10,02,05,42,11.30
2008,10,02,05,43,11.20
2008,10,02,05,44,11.20
2008,10,02,05,45,11.20
2008,10,02,05,46,11.20
2008,10,02,05,47,11.20
2008,10,02,05,48,11.20
2008,10,02,05,49,11.20
2008,10,02,05,50,11.20
2008,10,02,05,51,11.20
2008,10,02,05,52,11.20
2008,10,02,05,53,11.20
2008,10,02,05,54,11.20
2008,10,02,05,55,11.20
2008,10,02,05,56,11.20
2008,10,02,05,57,11.20
2008,10,02,05,58,11.20
2008,10,02,05,59,11.20
2008,10,02,06,00,11.20
2008,10,02,06,01,11.20
2008,10,02,06,02,11.20
2008,10,02,06,03,11.20
2008,10,02,06,04,11.10
2008,10,02,06,05,11.10
2008,10,02,06,06,11.10
2008,10,02,06,07,11.10
2008,10,02,06,08,11.10
2008,10,02,06,09,11.10
2008,10,02,06,10,11.10
2008,10,02,06,11,11.10
2008,10,02,06,12,11.10
2008,10,02,06,13,11.10
2008,10,02,06,14,11.10
2008,10,02,06,15,11.10
2008,10,02,06,16,11.10
2008,10,02,06,17,11.10
2008,10,02,06,18,11.10
2008,10,02,06,19,11.10
2008,10,02,06,20,11.10
2008,10,02,06,21,11.10
2008,10,02,06,22,11.10
2008,10,02,06,23,11.10
2008,10,02,06,24,11.10
2008,10,02,06,25,11.20
2008,10,02,06,26,11.20
2008,10,02,06,27,11.20
2008,10,02,06,28,11.20
2008,10,02,06,29,11.20
2008,10,02,06,30,11.20
2008,10,02,06,31,11.20
2008,10,02,06,32,11.20
2008,10,02,06,33,11.20
2008,10,02,06,34,11.20
2008,10,02,06,35,11.20
2008,10,02,06,36,11.20
2008,10,02,06,37,11.20
2008,10,02,06,38,11.20
2008,10,02,06,39,11.20
2008,10,02,06,40,11.20
2008,10,02,06,41,11.30
2008,10,02,06,42,11.30
2008,10,02,06,43,11.40
2008,10,02,06,44,11.40
2008,10,02,06,45,11.40
2008,10,02,06,46,11.30
2008,10,02,06,47,11.30
2008,10,02,06,48,11.30
2008,10,02,06,49,11.40
2008,10,02,06,50,11.40
2008,10,02,06,51,11.40
2008,10,02,06,52,11.40
2008,10,02,06,53,11.40
2008,10,02,06,54,11.40
2008,10,02,06,55,11.40
2008,10,02,06,56,11.40
2008,10,02,06,57,11.50
2008,10,02,06,58,11.50
2008,10,02,06,59,11.50
2008,10,02,07,00,11.50
2008,10,02,07,01,11.50
2008,10,02,07,02,11.50
2008,10,02,07,03,11.50
2008,10,02,07,04,11.50
2008,10,02,07,05,11.50
2008,10,02,07,06,11.50
2008,10,02,07,07,11.60
2008,10,02,07,08,11.60
2008,10,02,07,09,11.60
2008,10,02,07,10,11.60
2008,10,02,07,11,11.70
2008,10,02,07,12,11.70
2008,10,02,07,13,11.70
2008,10,02,07,14,11.70
2008,10,02,07,15,11.70
2008,10,02,07,16,11.70
2008,10,02,07,17,11.80
2008,10,02,07,18,11.80
2008,10,02,07,19,11.80
2008,10,02,07,20,11.80
2008,10,02,07,21,11.80
2008,10,02,07,22,11.80
2008,10,02,07,23,11.80
2008,10,02,07,24,11.80
2008,10,02,07,25,11.80
2008,10,02,07,26,11.80
2008,10,02,07,27,11.80
2008,10,02,07,28,11.80
2008,10,02,07,29,11.80
2008,10,02,07,30,11.80
2008,10,02,07,31,11.80
2008,10,02,07,32,11.80
2008,10,02,07,33,11.80
2008,10,02,07,34,11.80
2008,10,02,07,35,11.80
2008,10,02,07,36,11.80
2008,10,02,07,37,11.80
2008,10,02,07,38,11.80
2008,10,02,07,39,11.70
2008,10,02,07,40,11.70
2008,10,02,07,41,11.70
2008,10,02,07,42,11.70
2008,10,02,07,43,11.80
2008,10,02,07,44,11.80
2008,10,02,07,45,11.70
2008,10,02,07,46,11.70
2008,10,02,07,47,11.70
2008,10,02,07,48,11.80
2008,10,02,07,49,11.80
2008,10,02,07,50,11.80
2008,10,02,07,51,11.80
2008,10,02,07,52,11.80
2008,10,02,07,53,11.80
2008,10,02,07,54,11.80
2008,10,02,07,55,11.80
2008,10,02,07,56,11.80
2008,10,02,07,57,11.80
2008,10,02,07,58,11.80
2008,10,02,07,59,11.80
2008,10,02,08,00,11.80
2008,10,02,08,01,11.80
2008,10,02,08,02,11.80
2008,10,02,08,03,11.80
2008,10,02,08,04,11.80
2008,10,02,08,05,11.80
2008,10,02,08,06,11.80
2008,10,02,08,07,11.90
2008,10,02,08,08,11.90
2008,10,02,08,09,11.90
2008,10,02,08,10,11.90
2008,10,02,08,11,11.90
2008,10,02,08,12,11.90
2008,10,02,08,13,11.90
2008,10,02,08,14,11.90
2008,10,02,08,15,11.90
2008,10,02,08,16,11.90
2008,10,02,08,17,11.90
2008,10,02,08,18,11.90
2008,10,02,08,19,11.90
2008,10,02,08,20,11.90
2008,10,02,08,21,11.90
2008,10,02,08,22,11.90
2008,10,02,08,23,11.90
2008,10,02,08,24,11.90
2008,10,02,08,25,11.90
2008,10,02,08,26,11.90
2008,10,02,08,27,11.90
2008,10,02,08,28,11.90
2008,10,02,08,29,11.90
2008,10,02,08,30,11.90
2008,10,02,08,31,11.90
2008,10,02,08,32,11.90
2008,10,02,08,33,11.90
2008,10,02,08,34,11.90
2008,10,02,08,35,11.90
2008,10,02,08,36,11.90
2008,10,02,08,37,11.90
2008,10,02,08,38,11.90
2008,10,02,08,39,11.90
2008,10,02,08,40,11.90
2008,10,02,08,41,11.90
2008,10,02,08,42,11.90
2008,10,02,08,43,11.80
2008,10,02,08,44,11.80
2008,10,02,08,45,11.80
2008,10,02,08,46,11.80
2008,10,02,08,47,11.80
2008,10,02,08,48,11.80
2008,10,02,08,49,11.80
2008,10,02,08,50,11.80
2008,10,02,08,51,11.80
2008,10,02,08,52,11.80
2008,10,02,08,53,11.80
2008,10,02,08,54,11.80
2008,10,02,08,55,11.80
2008,10,02,08,56,11.80
2008,10,02,08,57,11.80
2008,10,02,08,58,11.80
2008,10,02,08,59,11.80
2008,10,02,09,00,11.80
2008,10,02,09,01,11.80
2008,10,02,09,02,11.80
2008,10,02,09,03,11.80
2008,10,02,09,04,11.80
2008,10,02,09,05,11.80
2008,10,02,09,06,11.80
2008,10,02,09,07,11.80
2008,10,02,09,08,11.80
2008,10,02,09,09,11.80
2008,10,02,09,10,11.80
2008,10,02,09,11,11.80
2008,10,02,09,12,11.80
2008,10,02,09,13,11.80
2008,10,02,09,14,11.80
2008,10,02,09,15,11.80
2008,10,02,09,16,11.80
2008,10,02,09,17,11.80
2008,10,02,09,18,11.80
2008,10,02,09,19,11.80
2008,10,02,09,20,11.80
2008,10,02,09,21,11.80
2008,10,02,09,22,11.80
2008,10,02,09,23,11.80
2008,10,02,09,24,11.80
2008,10,02,09,25,11.80
2008,10,02,09,26,11.80
2008,10,02,09,27,11.80
2008,10,02,09,28,11.80
2008,10,02,09,29,11.80
2008,10,02,09,30,11.80
2008,10,02,09,31,11.80
2008,10,02,09,32,11.80
2008,10,02,09,33,11.80
2008,10,02,09,34,11.80
2008,10,02,09,35,11.80
2008,10,02,09,36,11.80
2008,10,02,09,37,11.80
2008,10,02,09,38,11.80
2008,10,02,09,39,11.80
2008,10,02,09,40,11.80
2008,10,02,09,41,11.80
2008,10,02,09,42,11.80
2008,10,02,09,43,11.70
2008,10,02,09,44,11.70
2008,10,02,09,45,11.80
2008,10,02,09,46,11.80
2008,10,02,09,47,11.80
2008,10,02,09,48,11.80
2008,10,02,09,49,11.80
2008,10,02,09,50,11.80
2008,10,02,09,51,11.80
2008,10,02,09,52,11.80
2008,10,02,09,53,11.80
2008,10,02,09,54,11.80
2008,10,02,09,55,11.80
2008,10,02,09,56,11.90
2008,10,02,09,57,11.90
2008,10,02,09,58,11.90
2008,10,02,09,59,11.90
2008,10,02,10,00,11.90
2008,10,02,10,01,11.90
2008,10,02,10,02,11.90
2008,10,02,10,03,11.90
2008,10,02,10,04,11.90
2008,10,02,10,05,11.90
2008,10,02,10,06,11.90
2008,10,02,10,07,11.90
2008,10,02,10,08,11.90
2008,10,02,10,09,12.00
2008,10,02,10,10,12.00
2008,10,02,10,11,12.00
2008,10,02,10,12,12.00
2008,10,02,10,13,12.10
2008,10,02,10,14,12.10
2008,10,02,10,15,12.10
2008,10,02,10,16,12.10
2008,10,02,10,17,12.10
2008,10,02,10,18,12.10
2008,10,02,10,19,12.10
2008,10,02,10,20,12.20
2008,10,02,10,21,12.20
2008,10,02,10,22,12.20
2008,10,02,10,23,12.20
2008,10,02,10,24,12.20
2008,10,02,10,25,12.30
2008,10,02,10,26,12.30
2008,10,02,10,27,12.30
2008,10,02,10,28,12.30
2008,10,02,10,29,12.30
2008,10,02,10,30,12.30
2008,10,02,10,31,12.30
2008,10,02,10,32,12.30
2008,10,02,10,33,12.30
2008,10,02,10,34,12.40
2008,10,02,10,35,12.40
2008,10,02,10,36,12.40
2008,10,02,10,37,12.40
2008,10,02,10,38,12.40
2008,10,02,10,39,12.40
2008,10,02,10,40,12.50
2008,10,02,10,41,12.50
2008,10,02,10,42,12.50
2008,10,02,10,43,12.50
2008,10,02,10,44,12.50
2008,10,02,10,45,12.50
2008,10,02,10,46,12.50
2008,10,02,10,47,12.50
2008,10,02,10,48,12.50
2008,10,02,10,49,12.60
2008,10,02,10,50,12.60
2008,10,02,10,51,12.60
2008,10,02,10,52,12.60
2008,10,02,10,53,12.60
2008,10,02,10,54,12.60
2008,10,02,10,55,12.60
2008,10,02,10,56,12.70
2008,10,02,10,57,12.70
2008,10,02,10,58,12.70
2008,10,02,10,59,12.70
2008,10,02,11,00,12.70
2008,10,02,11,01,12.70
2008,10,02,11,02,12.70
2008,10,02,11,03,12.70
2008,10,02,11,04,12.70
2008,10,02,11,05,12.70
2008,10,02,11,06,12.80
2008,10,02,11,07,12.80
2008,10,02,11,08,12.80
2008,10,02,11,09,12.80
2008,10,02,11,10,12.80
2008,10,02,11,11,12.90
2008,10,02,11,12,12.90
2008,10,02,11,13,12.90
2008,10,02,11,14,12.90
2008,10,02,11,15,12.90
2008,10,02,11,16,13.00
2008,10,02,11,17,13.00
2008,10,02,11,18,13.00
2008,10,02,11,19,13.00
2008,10,02,11,20,13.00
2008,10,02,11,21,13.00
2008,10,02,11,22,13.10
2008,10,02,11,23,13.10
2008,10,02,11,24,13.10
2008,10,02,11,25,13.10
2008,10,02,11,26,13.10
2008,10,02,11,27,13.10
2008,10,02,11,28,13.10
2008,10,02,11,29,13.20
2008,10,02,11,30,13.20
2008,10,02,11,31,13.20
2008,10,02,11,32,13.20
2008,10,02,11,33,13.20
2008,10,02,11,34,13.20
2008,10,02,11,35,13.20
2008,10,02,11,36,13.20
2008,10,02,11,37,13.20
2008,10,02,11,38,13.20
2008,10,02,11,39,13.30
2008,10,02,11,40,13.30
2008,10,02,11,41,13.30
2008,10,02,11,42,13.30
2008,10,02,11,43,13.30
2008,10,02,11,44,13.30
2008,10,02,11,45,13.30
2008,10,02,11,46,13.30
2008,10,02,11,47,13.30
2008,10,02,11,48,13.40
2008,10,02,11,49,13.40
2008,10,02,11,50,13.40
2008,10,02,11,51,13.40
2008,10,02,11,52,13.40
2008,10,02,11,53,13.40
2008,10,02,11,54,13.40
2008,10,02,11,55,13.50
2008,10,02,11,56,13.50
2008,10,02,11,57,13.60
2008,10,02,11,58,13.60
2008,10,02,11,59,13.60
2008,10,02,12,00,13.60
2008,10,02,12,01,13.50
2008,10,02,12,02,13.50
2008,10,02,12,03,13.50
2008,10,02,12,04,13.50
2008,10,02,12,05,13.50
2008,10,02,12,06,13.60
2008,10,02,12,07,13.60
2008,10,02,12,08,13.60
2008,10,02,12,09,13.60
2008,10,02,12,10,13.60
2008,10,02,12,11,13.60
2008,10,02,12,12,13.60
2008,10,02,12,13,13.70
2008,10,02,12,14,13.70
2008,10,02,12,15,13.70
2008,10,02,12,16,13.70
2008,10,02,12,17,13.70
2008,10,02,12,18,13.70
2008,10,02,12,19,13.70
2008,10,02,12,20,13.80
2008,10,02,12,21,13.80
2008,10,02,12,22,13.80
2008,10,02,12,23,13.80
2008,10,02,12,24,13.80
2008,10,02,12,25,13.80
2008,10,02,12,26,13.80
2008,10,02,12,27,13.80
2008,10,02,12,28,13.90
2008,10,02,12,29,13.90
2008,10,02,12,30,13.90
2008,10,02,12,31,14.00
2008,10,02,12,32,14.00
2008,10,02,12,33,14.00
2008,10,02,12,34,14.10
2008,10,02,12,35,14.10
2008,10,02,12,36,14.10
2008,10,02,12,37,14.20
2008,10,02,12,38,14.20
2008,10,02,12,39,14.20
2008,10,02,12,40,14.20
2008,10,02,12,41,14.30
2008,10,02,12,42,14.30
2008,10,02,12,43,14.30
2008,10,02,12,44,14.40
2008,10,02,12,45,14.40
2008,10,02,12,46,14.40
2008,10,02,12,47,14.40
2008,10,02,12,48,14.40
2008,10,02,12,49,14.40
2008,10,02,12,50,14.40
2008,10,02,12,51,14.40
2008,10,02,12,52,14.40
2008,10,02,12,53,14.40
2008,10,02,12,54,14.40
2008,10,02,12,55,14.40
2008,10,02,12,56,14.40
2008,10,02,14,40,15.50
2008,10,02,14,41,15.50
2008,10,02,14,42,15.50
2008,10,02,14,43,15.50
2008,10,02,14,44,15.50
2008,10,02,14,45,15.50
2008,10,02,14,46,15.50
2008,10,02,14,47,15.50
2008,10,02,14,48,15.50
2008,10,02,14,49,15.50
2008,10,02,14,50,15.50
2008,10,02,14,51,15.50
2008,10,02,14,52,15.40
2008,10,02,14,53,15.40
2008,10,02,14,54,15.40
2008,10,02,14,55,15.40
2008,10,02,14,56,15.40
2008,10,02,14,57,15.40
2008,10,02,14,58,15.40
2008,10,02,14,59,15.40
2008,10,02,15,00,15.40
2008,10,02,15,01,15.40
2008,10,02,15,02,15.40
2008,10,02,15,03,15.50
2008,10,02,15,04,15.50
2008,10,02,15,05,15.50
2008,10,02,15,06,15.50
2008,10,02,15,07,15.50
2008,10,02,15,08,15.50
2008,10,02,15,09,15.50
2008,10,02,15,10,15.50
2008,10,02,15,11,15.50
2008,10,02,15,12,15.50
2008,10,02,15,13,15.60
2008,10,02,15,14,15.60
2008,10,02,15,15,15.70
2008,10,02,15,16,15.70
2008,10,02,15,17,15.70
2008,10,02,15,18,15.70
2008,10,02,15,19,15.70
2008,10,02,15,20,15.80
2008,10,02,15,21,15.80
2008,10,02,15,22,15.80
2008,10,02,15,23,15.70
2008,10,02,15,24,15.70
2008,10,02,15,25,15.70
2008,10,02,15,26,15.70
2008,10,02,15,27,15.70
2008,10,02,15,28,15.70
2008,10,02,15,29,15.70
2008,10,02,15,30,15.70
2008,10,02,15,31,15.70
2008,10,02,15,32,15.70
2008,10,02,15,33,15.70
2008,10,02,15,34,15.70
2008,10,02,15,35,15.70
2008,10,02,15,36,15.70
2008,10,02,15,37,15.70
2008,10,02,15,38,15.80
2008,10,02,15,39,15.70
2008,10,02,15,40,15.70
2008,10,02,15,41,15.70
2008,10,02,15,42,15.70
2008,10,02,15,43,15.70
2008,10,02,15,44,15.70
2008,10,02,15,45,15.70
2008,10,02,15,46,15.70
2008,10,02,15,47,15.70
2008,10,02,15,48,15.70
2008,10,02,15,49,15.80
2008,10,02,15,50,15.80
2008,10,02,15,51,15.80
2008,10,02,15,52,15.70
2008,10,02,15,53,15.70
2008,10,02,15,54,15.70
2008,10,02,15,55,15.70
2008,10,02,15,56,15.70
2008,10,02,15,57,15.70
2008,10,02,15,58,15.70
2008,10,02,15,59,15.70
2008,10,02,16,00,15.80
2008,10,02,16,01,15.80
2008,10,02,16,02,15.80
2008,10,02,16,03,15.70
2008,10,02,16,04,15.70
2008,10,02,16,05,15.60
2008,10,02,16,06,15.60
2008,10,02,16,07,15.60
2008,10,02,16,08,15.50
2008,10,02,16,09,15.50
2008,10,02,16,10,15.50
2008,10,02,16,11,15.50
2008,10,02,16,12,15.50
2008,10,02,16,13,15.50
2008,10,02,16,14,15.50
2008,10,02,16,15,15.60
2008,10,02,16,16,15.60
2008,10,02,16,17,15.60
2008,10,02,16,18,15.60
2008,10,02,16,19,15.60
2008,10,02,16,20,15.50
2008,10,02,16,21,15.50
2008,10,02,16,22,15.50
2008,10,02,16,23,15.40
2008,10,02,16,24,15.40
2008,10,02,16,25,15.40
2008,10,02,16,26,15.40
2008,10,02,16,27,15.40
2008,10,02,16,28,15.40
2008,10,02,16,29,15.50
2008,10,02,16,30,15.50
2008,10,02,16,31,15.50
2008,10,02,16,32,15.50
2008,10,02,16,33,15.40
2008,10,02,16,34,15.40
2008,10,02,16,35,15.40
2008,10,02,16,36,15.40
2008,10,02,16,37,15.40
2008,10,02,16,38,15.50
2008,10,02,16,39,15.50
2008,10,02,16,40,15.50
2008,10,02,16,41,15.50
2008,10,02,16,42,15.60
2008,10,02,16,43,15.50
2008,10,02,16,44,15.50
2008,10,02,16,45,15.60
2008,10,02,16,46,15.60
2008,10,02,16,47,15.60
2008,10,02,16,48,15.60
2008,10,02,16,49,15.60
2008,10,02,16,50,15.60
2008,10,02,16,51,15.60
2008,10,02,16,52,15.60
2008,10,02,16,53,15.60
2008,10,02,16,54,15.60
2008,10,02,16,55,15.60
2008,10,02,16,56,15.60
2008,10,02,16,57,15.60
2008,10,02,16,58,15.60
2008,10,02,16,59,15.60
2008,10,02,17,00,15.60
2008,10,02,17,01,15.60
2008,10,02,17,02,15.60
2008,10,02,17,03,15.60
2008,10,02,17,04,15.60
2008,10,02,17,05,15.60
2008,10,02,17,06,15.60
2008,10,02,17,07,15.70
2008,10,02,17,08,15.70
2008,10,02,17,09,15.70
2008,10,02,17,10,15.70
2008,10,02,17,11,15.80
2008,10,02,17,12,15.70
2008,10,02,17,13,15.70
2008,10,02,17,14,15.70
2008,10,02,17,15,15.70
2008,10,02,17,16,15.70
2008,10,02,17,17,15.80
2008,10,02,17,18,15.80
2008,10,02,17,19,15.80
2008,10,02,17,20,15.80
2008,10,02,17,21,15.80
2008,10,02,17,22,15.80
2008,10,02,17,23,15.80
2008,10,02,17,24,15.80
2008,10,02,17,25,15.90
2008,10,02,17,26,15.90
2008,10,02,17,27,15.90
2008,10,02,17,28,15.90
2008,10,02,17,29,15.90
2008,10,02,17,30,15.90
2008,10,02,17,31,15.90
2008,10,02,17,32,15.90
2008,10,02,17,33,15.90
2008,10,02,17,34,15.90
2008,10,02,17,35,15.90
2008,10,02,17,36,15.90
2008,10,02,17,37,15.80
2008,10,02,17,38,15.80
2008,10,02,17,40,15.80
2008,10,02,17,41,15.80
2008,10,02,17,42,15.80
2008,10,02,17,43,15.80
2008,10,02,17,44,15.80
2008,10,02,17,45,15.80
2008,10,02,17,46,15.80
2008,10,02,17,47,15.80
2008,10,02,17,48,15.80
2008,10,02,17,49,15.80
2008,10,02,17,50,15.90
2008,10,02,17,51,15.90
2008,10,02,17,52,15.80
2008,10,02,17,53,15.90
2008,10,02,17,54,15.80
2008,10,02,17,55,15.80
2008,10,02,17,56,15.80
2008,10,02,17,57,15.80
2008,10,02,17,58,15.80
2008,10,02,17,59,15.80
2008,10,02,18,00,15.80
2008,10,02,18,01,15.80
2008,10,02,18,02,15.70
2008,10,02,18,03,15.70
2008,10,02,18,04,15.70
2008,10,02,18,05,15.70
2008,10,02,18,06,15.70
2008,10,02,18,07,15.60
2008,10,02,18,08,15.60
2008,10,02,18,09,15.60
2008,10,02,18,10,15.50
2008,10,02,18,11,15.50
2008,10,02,18,12,15.50
2008,10,02,18,13,15.40
2008,10,02,18,14,15.40
2008,10,02,18,15,15.40
2008,10,02,18,16,15.40
2008,10,02,18,17,15.30
2008,10,02,18,18,15.30
2008,10,02,18,19,15.30
2008,10,02,18,20,15.30
2008,10,02,18,21,15.30
2008,10,02,18,22,15.30
2008,10,02,18,23,15.20
2008,10,02,18,24,15.20
2008,10,02,18,25,15.20
2008,10,02,18,26,15.20
2008,10,02,18,27,15.20
2008,10,02,18,28,15.20
2008,10,02,18,29,15.20
2008,10,02,18,30,15.20
2008,10,02,18,31,15.20
2008,10,02,18,32,15.10
2008,10,02,18,33,15.10
2008,10,02,18,34,15.10
2008,10,02,18,35,15.10
2008,10,02,18,36,15.10
2008,10,02,18,37,15.10
2008,10,02,18,38,15.00
2008,10,02,18,39,15.00
2008,10,02,18,40,15.00
2008,10,02,18,41,15.00
2008,10,02,18,42,15.00
2008,10,02,18,43,15.00
2008,10,02,18,44,15.00
2008,10,02,18,45,15.00
2008,10,02,18,46,15.00
2008,10,02,18,47,15.00
2008,10,02,18,48,15.00
2008,10,02,18,49,15.00
2008,10,02,18,50,15.00
2008,10,02,18,51,15.00
2008,10,02,18,52,15.00
2008,10,02,18,53,15.00
2008,10,02,18,54,15.00
2008,10,02,18,55,15.00
2008,10,02,18,56,15.00
2008,10,02,18,57,15.00
2008,10,02,18,58,15.00
2008,10,02,18,59,15.00
2008,10,02,19,00,15.00
2008,10,02,19,01,14.90
2008,10,02,19,02,14.90
2008,10,02,19,03,14.90
2008,10,02,19,04,14.90